Temp
-5 -5 -5 -4 -4 -4 -4 -3 -3 -3 -3 -3 -3 -3 -3 -4 -2 -3 -2 -2 -1 -1 -0 -0 0 1 1 1 2 2 2 2 2 1 2 1 1 1 2 2 1 2 2 2
-5 -5 -4 -4 -5 -5 -5 -5 -4 -4 -4 -4 -4 -4 -4 -5 -3 -3 -3 -3 -2 -1 -1 -1 -1 -0 -0 0 0 1 1 1 1 1 1 1 1 1 1 2 2 2 2 2
-6 -5 -5 -5 -6 -6 -6 -6 -5 -5 -6 -5 -5 -4 -4 -4 -4 -3 -3 -3 -3 -3 -1 -1 -1 -1 -1 -1 -1 -0 -0 -0 0 0 1 1 1 1 1 1 2 2 2 2
-7 -6 -6 -6 -7 -7 -6 -7 -6 -6 -7 -5 -6 -2 -6 -6 -5 -5 -4 -4 -3 -3 -2 -2 -1 -1 -1 -2 -2 -1 -1 -1 -1 -1 -0 0 1 1 1 1 1 1 2 2
-7 -7 -7 -8 -7 -7 -8 -7 -7 -7 -8 -7 -6 -5 -7 -7 -8 -6 -6 -6 -5 -4 -3 -3 -2 -3 -3 -3 -3 -3 -3 -2 -2 -2 -2 -1 -0 0 1 1 1 1 1 2
-8 -8 -8 -8 -8 -8 -8 -8 -8 -8 -9 -7 -5 -5 -9 -9 -8 -8 -8 -7 -6 -5 -5 -4 -3 -4 -3 -3 -3 -4 -4 -4 -4 -3 -3 -3 -2 -1 -1 -0 0 0 1 1
-10 -9 -9 -9 -10 -9 -9 -10 -7 -7 -8 -5 -8 -8 -11 -11 -10 -9 -8 -7 -7 -6 -6 -5 -5 -4 -4 -4 -4 -5 -5 -5 -5 -4 -4 -3 -3 -3 -2 -2 -1 -1 -0 0
-9 -9 -10 -11 -10 -11 -11 -10 -7 -5 -5 -7 -9 -8 -13 -12 -11 -11 -10 -9 -8 -7 -6 -6 -6 -5 -5 -5 -6 -7 -7 -7 -6 -5 -5 -5 -5 -4 -4 -3 -3 -2 -2 -1
-11 -11 -11 -11 -11 -11 -11 -10 -10 -9 -9 -7 -9 -12 -12 -13 -12 -12 -11 -11 -9 -8 -7 -7 -6 -6 -7 -7 -7 -8 -8 -8 -7 -7 -7 -7 -6 -6 -5 -5 -4 -4 -3 -3
-13 -11 -12 -12 -12 -12 -11 -11 -10 -10 -8 -7 -9 -10 -13 -14 -13 -12 -12 -11 -11 -10 -9 -8 -7 -7 -8 -8 -9 -9 -9 -9 -8 -8 -8 -8 -7 -7 -7 -6 -6 -5 -5 -4
-13 -13 -13 -12 -13 -12 -12 -12 -12 -11 -10 -8 -7 -12 -15 -14 -14 -13 -13 -13 -12 -12 -11 -11 -10 -9 -10 -10 -11 -11 -11 -11 -10 -10 -9 -9 -9 -9 -8 -7 -7 -6 -6 -5
-15 -14 -12 -14 -13 -13 -13 -14 -13 -11 -10 -10 -10 -14 -15 -15 -14 -14 -13 -13 -13 -13 -13 -13 -12 -12 -12 -12 -12 -12 -12 -12 -11 -11 -11 -10 -10 -9 -9 -8 -8 -8 -7 -6
-14 -14 -12 -14 -14 -14 -14 -14 -14 -13 -13 -11 -11 -14 -15 -15 -15 -14 -14 -13 -13 -13 -13 -13 -13 -13 -13 -13 -13 -13 -13 -13 -12 -11 -11 -11 -10 -10 -10 -9 -9 -9 -8 -8
-15 -15 -14 -13 -15 -14 -15 -14 -14 -14 -12 -13 -14 -15 -15 -15 -15 -14 -14 -14 -14 -13 -13 -13 -13 -13 -13 -13 -13 -13 -13 -12 -12 -12 -12 -12 -11 -11 -10 -10 -9 -9 -8 -8
-15 -15 -15 -15 -16 -15 -15 -15 -15 -14 -14 -14 -15 -15 -15 -15 -15 -15 -15 -14 -14 -14 -14 -14 -14 -14 -13 -13 -13 -13 -13 -13 -13 -13 -12 -12 -12 -11 -11 -11 -10 -9 -9 -9
-15 -15 -15 -16 -16 -16 -16 -16 -16 -15 -15 -15 -15 -16 -16 -16 -16 -15 -15 -15 -15 -15 -15 -14 -14 -14 -14 -14 -14 -13 -13 -13 -13 -13 -12 -12 -12 -12 -11 -11 -11 -10 -10 -10
-15 -16 -15 -14 -16 -16 -15 -16 -16 -16 -16 -16 -16 -16 -17 -17 -16 -16 -15 -15 -15 -15 -15 -15 -15 -14 -14 -14 -14 -14 -14 -14 -13 -13 -13 -13 -12 -12 -12 -12 -11 -11 -10 -10
-15 -15 -16 -14 -16 -14 -15 -15 -16 -16 -16 -16 -17 -17 -17 -18 -17 -17 -17 -15 -15 -15 -15 -15 -15 -15 -15 -14 -14 -14 -14 -14 -14 -14 -13 -13 -13 -13 -13 -12 -12 -12 -11 -11
-16 -16 -16 -15 -14 -15 -16 -16 -16 -16 -16 -17 -17 -17 -18 -19 -18 -18 -19 -18 -17 -16 -16 -15 -15 -15 -14 -14 -14 -14 -14 -14 -13 -13 -14 -14 -13 -13 -13 -13 -12 -12 -12 -12
-15 -16 -16 -16 -14 -14 -16 -16 -16 -16 -16 -17 -17 -17 -18 -18 -19 -19 -18 -18 -17 -17 -17 -16 -15 -15 -14 -14 -14 -14 -14 -14 -13 -13 -13 -13 -13 -14 -13 -13 -13 -13 -13 -12
-16 -16 -16 -15 -15 -15 -16 -16 -16 -16 -17 -17 -18 -18 -18 -18 -19 -18 -17 -17 -17 -17 -16 -16 -16 -16 -16 -15 -14 -14 -14 -14 -14 -14 -13 -13 -13 -13 -14 -14 -13 -13 -13 -13
-16 -16 -15 -16 -16 -15 -16 -16 -17 -17 -17 -18 -18 -18 -18 -18 -18 -17 -17 -17 -17 -17 -17 -17 -17 -17 -16 -16 -15 -15 -14 -14 -14 -14 -14 -13 -13 -13 -13 -13 -13 -13 -13 -13
-16 -16 -16 -15 -15 -16 -16 -16 -17 -17 -18 -18 -18 -19 -18 -18 -17 -17 -17 -17 -17 -17 -17 -17 -17 -17 -17 -17 -16 -16 -15 -15 -14 -15 -14 -14 -14 -14 -14 -13 -13 -13 -13 -13
-17 -16 -16 -16 -16 -16 -17 -17 -18 -18 -18 -19 -19 -19 -18 -17 -17 -17 -18 -18 -18 -18 -18 -18 -17 -17 -17 -17 -17 -16 -16 -15 -15 -14 -15 -15 -15 -14 -14 -14 -14 -14 -14 -13
-18 -17 -17 -16 -17 -17 -17 -18 -18 -18 -19 -19 -18 -18 -18 -17 -18 -17 -18 -18 -18 -18 -18 -18 -18 -18 -17 -18 -17 -17 -17 -16 -16 -15 -15 -15 -15 -15 -15 -14 -14 -14 -14 -15
-17 -17 -16 -17 -17 -17 -18 -18 -18 -18 -19 -19 -18 -18 -18 -18 -18 -18 -18 -18 -18 -18 -19 -18 -18 -18 -18 -18 -18 -18 -18 -17 -17 -16 -16 -16 -16 -16 -16 -16 -15 -15 -15 -15
Height
2997 2999 2999 3001 3002 3002 3002 3002 3004 3005 3004 3006 3008 3011 3015 3014 3013 3015 3016 3018 3022 3024 3027 3029 3031 3036 3039 3043 3046 3050 3053 3057 3061 3064 3067 3071 3076 3079 3083 3088 3091 3095 3098 3101
2996 2996 2993 2995 2996 2997 2998 3000 3001 3003 3001 3003 3005 3005 3008 3005 3005 3009 3011 3013 3016 3018 3021 3024 3027 3030 3033 3037 3040 3043 3047 3051 3055 3058 3061 3065 3069 3072 3076 3082 3084 3089 3092 3096
2994 2991 2991 2991 2992 2993 2994 2996 2998 3000 2997 2999 3000 2999 3003 3000 3001 3002 3004 3007 3010 3012 3015 3018 3021 3024 3028 3031 3035 3037 3042 3044 3049 3051 3055 3059 3063 3066 3070 3074 3078 3082 3085 3089
2990 2987 2988 2988 2989 2990 2992 2991 2993 2994 2997 2998 2997 2995 2997 2994 2995 2996 2997 3000 3002 3005 3008 3010 3014 3016 3021 3026 3029 3032 3035 3038 3041 3045 3049 3053 3056 3059 3063 3067 3071 3074 3077 3081
2987 2985 2985 2986 2986 2987 2988 2989 2991 2992 2994 2994 2994 2997 2992 2993 2991 2991 2991 2992 2995 2998 3001 3004 3006 3011 3016 3018 3022 3025 3028 3032 3034 3038 3042 3046 3050 3052 3055 3059 3064 3066 3069 3073
2983 2983 2983 2983 2983 2985 2986 2988 2989 2990 2992 2991 2988 2990 2990 2989 2987 2988 2988 2988 2989 2991 2993 2997 2998 3005 3009 3011 3015 3018 3021 3025 3028 3032 3036 3040 3043 3045 3048 3051 3055 3058 3061 3065
2982 2981 2980 2981 2982 2983 2984 2987 2986 2988 2988 2979 2983 2987 2986 2985 2985 2984 2985 2985 2985 2986 2987 2990 2993 2998 3002 3005 3008 3012 3016 3019 3022 3026 3029 3032 3034 3038 3041 3043 3048 3050 3053 3058
2981 2980 2979 2979 2980 2981 2981 2983 2980 2970 2970 2975 2981 2982 2984 2984 2983 2982 2982 2982 2981 2982 2983 2984 2986 2989 2995 2999 3003 3006 3010 3013 3016 3019 3022 3025 3028 3031 3033 3036 3040 3042 3046 3050
2980 2979 2979 2979 2979 2981 2980 2982 2981 2981 2978 2978 2979 2983 2984 2983 2983 2982 2982 2981 2979 2978 2978 2979 2981 2983 2987 2992 2997 3001 3004 3007 3010 3013 3016 3018 3021 3023 3027 3029 3032 3035 3037 3043
2980 2979 2978 2978 2979 2980 2979 2980 2981 2980 2976 2970 2976 2979 2983 2982 2983 2982 2981 2980 2979 2977 2976 2975 2976 2979 2982 2987 2992 2995 2998 3001 3004 3007 3010 3013 3016 3019 3022 3023 3025 3027 3030 3034
2979 2980 2979 2978 2978 2978 2980 2979 2979 2979 2978 2971 2966 2981 2981 2981 2981 2981 2981 2980 2980 2978 2976 2974 2974 2976 2979 2984 2987 2990 2993 2995 2998 3001 3004 3007 3010 3013 3015 3016 3018 3021 3025 3027
2977 2977 2976 2976 2976 2976 2977 2977 2978 2978 2976 2976 2975 2982 2980 2981 2981 2981 2981 2981 2980 2978 2978 2976 2975 2976 2978 2981 2983 2986 2989 2992 2994 2996 2999 3001 3004 3006 3008 3010 3013 3016 3018 3020
2977 2977 2976 2977 2979 2977 2977 2976 2976 2977 2977 2976 2976 2980 2980 2980 2981 2981 2981 2980 2980 2979 2978 2978 2977 2978 2978 2978 2980 2983 2985 2988 2990 2993 2995 2998 3000 3001 3003 3005 3007 3009 3011 3012
2976 2977 2976 2975 2976 2976 2977 2977 2977 2976 2976 2976 2977 2977 2979 2979 2979 2980 2979 2979 2978 2978 2977 2977 2977 2977 2978 2978 2979 2981 2982 2984 2986 2988 2990 2993 2995 2997 2999 3001 3003 3004 3006 3007
2977 2978 2977 2976 2975 2975 2976 2976 2976 2976 2976 2978 2978 2978 2977 2978 2977 2977 2976 2976 2976 2975 2975 2975 2974 2974 2974 2975 2975 2976 2978 2980 2982 2983 2985 2987 2988 2990 2992 2995 2996 2998 2999 3000
2977 2978 2978 2977 2976 2976 2976 2976 2976 2976 2976 2976 2976 2977 2977 2976 2975 2974 2973 2972 2972 2972 2971 2971 2971 2971 2970 2970 2970 2971 2972 2974 2975 2976 2978 2980 2981 2983 2985 2986 2988 2989 2990 2992
2977 2977 2977 2975 2976 2976 2976 2975 2975 2975 2975 2976 2976 2976 2975 2974 2972 2970 2969 2968 2968 2967 2966 2966 2966 2966 2965 2965 2965 2965 2966 2967 2968 2969 2971 2972 2973 2975 2976 2977 2978 2980 2982 2983
2977 2977 2977 2976 2976 2974 2972 2973 2974 2974 2974 2973 2973 2973 2972 2971 2968 2966 2963 2962 2961 2960 2960 2960 2959 2959 2959 2959 2959 2959 2959 2959 2960 2961 2963 2964 2965 2966 2967 2968 2970 2970 2972 2973
2976 2976 2976 2976 2973 2973 2971 2972 2973 2973 2973 2971 2971 2971 2970 2967 2963 2963 2961 2955 2953 2951 2951 2950 2950 2951 2950 2950 2951 2950 2951 2951 2952 2953 2954 2955 2956 2957 2959 2960 2962 2962 2963 2964
2975 2975 2977 2975 2974 2969 2970 2970 2971 2970 2969 2968 2969 2967 2965 2961 2958 2958 2953 2950 2946 2944 2941 2940 2939 2939 2940 2940 2940 2941 2942 2942 2943 2944 2945 2946 2947 2949 2951 2952 2953 2953 2955 2956
2974 2973 2974 2973 2973 2970 2969 2969 2969 2971 2972 2966 2964 2962 2959 2957 2954 2947 2945 2942 2939 2935 2933 2931 2930 2929 2928 2928 2929 2930 2931 2932 2933 2934 2935 2936 2938 2940 2942 2943 2944 2946 2947 2947
2973 2973 2972 2971 2971 2970 2968 2968 2969 2968 2964 2962 2959 2956 2952 2949 2946 2941 2937 2934 2931 2928 2925 2923 2920 2919 2918 2918 2918 2919 2919 2920 2922 2924 2925 2926 2928 2929 2931 2933 2935 2937 2938 2939
2971 2970 2970 2971 2969 2967 2966 2964 2963 2961 2959 2956 2953 2950 2945 2940 2938 2934 2931 2927 2923 2920 2917 2914 2912 2910 2909 2908 2907 2907 2908 2909 2910 2912 2914 2916 2917 2919 2920 2923 2924 2927 2929 2931
2967 2966 2966 2967 2965 2964 2962 2960 2958 2956 2953 2950 2946 2941 2936 2933 2931 2927 2924 2920 2916 2913 2909 2906 2904 2901 2899 2898 2896 2895 2896 2898 2899 2901 2903 2905 2906 2908 2910 2911 2914 2916 2919 2922
2965 2963 2962 2961 2961 2959 2957 2955 2953 2951 2947 2943 2938 2933 2929 2926 2923 2920 2917 2914 2910 2906 2903 2899 2896 2893 2890 2887 2886 2885 2885 2885 2887 2890 2892 2894 2895 2897 2898 2900 2902 2905 2908 2912
2961 2961 2961 2959 2958 2956 2953 2951 2948 2945 2941 2936 2930 2926 2922 2919 2916 2913 2910 2906 2902 2899 2896 2892 2888 2884 2882 2879 2877 2875 2874 2875 2876 2879 2881 2884 2885 2886 2886 2888 2890 2893 2896 2901
Wind_Speed
9 10 11 13 14 18 14 11 7 7 15 15 14 15 12 14 22 21 15 24 28 30 31 31 31 33 33 33 33 33 33 34 35 36 36 36 36 35 34 32 31 32 34 34
10 10 17 18 19 17 17 14 15 14 19 15 13 17 11 18 24 21 24 19 22 28 34 34 33 31 32 32 33 33 33 33 34 34 35 35 36 36 35 36 35 35 35 34
9 12 13 13 13 13 13 13 11 11 9 11 15 18 16 24 23 24 25 27 26 25 32 34 37 33 33 33 32 33 33 33 34 35 36 36 37 37 37 37 37 37 37 38
7 12 12 10 10 10 8 12 15 15 7 8 8 3 11 14 15 21 25 27 30 31 31 33 37 39 37 33 33 34 33 33 34 34 35 36 37 38 37 38 38 39 39 39
8 8 7 5 11 9 9 10 9 10 9 10 10 6 7 6 12 13 15 22 27 32 34 35 36 33 35 36 34 34 35 35 34 34 34 35 37 37 38 38 38 38 38 39
9 8 8 10 9 9 7 5 4 5 4 6 16 16 3 4 12 14 13 17 19 24 30 35 36 33 33 37 37 36 35 34 34 34 33 34 34 35 37 38 38 38 39 39
4 7 7 8 6 6 8 6 5 6 6 3 10 8 4 6 8 8 9 10 14 19 22 26 32 34 33 34 36 36 34 33 33 33 33 34 34 34 35 35 37 38 39 40
5 4 1 2 7 6 9 10 5 4 2 5 6 5 2 4 7 7 8 9 9 12 18 21 25 29 33 33 33 32 31 31 32 32 33 33 33 33 34 34 35 35 36 37
3 4 1 2 4 6 4 5 5 5 2 4 10 4 1 4 5 5 6 7 10 9 10 17 22 24 30 32 32 30 30 30 30 31 31 31 31 31 32 32 33 33 34 35
3 4 2 3 2 2 3 3 3 6 4 5 3 7 6 3 6 7 7 7 8 8 7 9 17 22 25 30 30 30 30 30 29 28 28 29 29 29 30 30 31 32 32 33
5 4 2 2 2 2 1 3 4 5 3 3 2 6 1 1 1 3 5 7 7 7 6 5 6 15 22 27 29 28 28 27 27 27 27 26 26 26 27 28 29 30 31 31
4 4 4 2 4 4 6 7 4 4 1 5 4 5 4 3 1 2 4 5 6 7 6 4 3 10 19 25 28 27 27 26 27 27 27 27 26 26 26 26 27 27 28 29
2 3 4 3 2 3 4 4 1 10 8 6 4 6 6 3 1 2 3 5 7 7 6 5 9 12 18 23 25 25 25 25 25 25 25 24 25 25 26 26 26 26 27 26
4 1 4 7 6 3 1 2 2 1 3 2 3 6 6 6 6 7 8 10 9 7 8 10 11 10 17 22 24 27 30 31 31 31 30 29 28 28 27 26 26 28 27 27
2 2 3 1 2 1 2 1 3 2 3 2 1 5 6 6 8 10 10 12 12 11 10 11 12 14 16 16 22 26 28 28 26 30 30 30 30 31 34 35 38 38 37 36
2 1 3 2 3 3 2 2 3 1 1 2 5 7 7 9 13 16 16 16 16 16 15 15 16 16 17 19 20 21 22 25 26 28 30 31 28 27 26 28 28 29 30 30
2 2 1 2 3 5 8 8 4 3 3 5 3 5 11 12 15 19 21 22 21 20 20 20 20 21 20 21 21 22 24 26 27 28 28 29 29 28 29 30 31 31 31 32
2 1 2 1 1 3 2 4 2 3 5 8 4 6 11 14 20 22 24 25 25 26 26 25 26 26 25 25 26 26 26 26 25 25 25 26 27 28 27 28 29 32 33 33
4 3 3 3 6 5 6 6 1 7 8 7 3 14 13 20 26 16 17 26 26 27 30 33 33 32 32 33 30 30 29 29 29 28 27 27 27 27 28 27 24 27 30 31
6 6 3 2 4 3 3 7 5 13 3 2 14 21 23 26 24 20 28 26 25 25 26 29 32 36 38 37 37 36 34 33 32 30 30 32 31 29 27 27 29 28 26 27
3 4 8 6 5 5 5 6 9 3 1 15 23 24 25 28 30 34 27 26 25 25 26 27 28 31 33 36 38 38 37 35 35 34 34 34 34 34 32 30 30 29 28 28
5 4 4 4 3 3 4 9 9 14 20 23 25 27 31 32 30 27 28 27 26 27 26 27 28 29 30 33 36 39 40 39 37 36 36 36 36 35 36 37 36 33 30 29
5 12 4 6 4 11 16 17 20 24 24 25 28 31 34 33 27 26 26 26 26 26 26 27 27 28 28 30 33 37 40 41 40 38 37 37 39 39 38 38 40 40 37 34
10 12 15 15 12 14 18 19 20 20 22 27 33 35 31 26 25 25 25 25 26 25 26 26 27 28 28 28 30 33 38 40 40 39 38 37 38 39 39 40 40 41 41 38
14 14 15 19 18 13 15 16 18 21 26 31 34 29 25 25 25 26 25 25 24 24 25 26 26 27 28 29 28 29 32 35 37 37 36 36 36 37 39 40 40 41 42 38
5 4 7 9 13 16 18 19 21 24 30 33 32 26 24 25 26 26 25 25 26 25 25 25 26 26 27 27 27 27 28 30 32 33 33 34 35 37 38 38 39 40 42 39
Wind_Direction
235 220 226 235 228 237 238 219 234 224 239 247 244 248 242 249 259 256 246 233 234 235 237 237 234 231 231 229 227 225 224 224 224 224 226 228 230 231 234 235 233 230 232 241
244 235 230 233 234 241 242 245 244 246 255 247 241 246 241 239 250 250 247 241 232 232 236 236 235 232 231 230 229 228 226 225 226 227 228 229 230 231 233 234 234 234 237 234
235 230 244 237 240 239 242 237 245 234 259 253 256 266 229 249 248 246 243 242 238 232 233 236 235 234 233 232 231 230 228 227 227 228 230 232 233 233 234 235 236 237 238 239
227 250 248 243 233 234 232 247 237 239 243 253 217 213 176 236 242 239 241 236 237 236 234 232 233 233 233 234 234 233 232 230 229 228 229 231 234 236 237 237 238 238 238 240
248 244 231 226 229 225 229 244 233 235 224 243 222 245 174 223 224 230 240 243 237 233 235 236 236 234 231 229 230 233 234 234 235 235 234 233 234 234 237 239 241 241 241 242
250 248 245 246 242 230 230 226 234 228 200 238 228 208 119 232 252 250 261 258 251 245 238 236 240 233 231 231 230 231 233 235 236 237 239 239 239 238 238 239 241 243 244 245
273 283 261 246 233 231 209 180 195 200 194 252 185 200 207 265 275 280 279 274 264 254 248 243 240 234 233 232 230 231 233 236 238 240 240 242 243 243 243 242 242 242 243 244
263 216 210 226 200 187 209 192 278 280 183 123 160 206 151 254 276 298 310 305 292 267 251 242 240 236 229 230 229 228 230 233 235 238 240 242 243 244 245 245 245 245 245 245
342 181 272 193 164 174 190 215 247 307 283 288 141 137 148 245 265 289 301 309 303 296 264 239 237 236 224 222 223 223 226 230 233 234 237 239 241 242 244 245 246 247 246 247
306 288 253 187 216 229 242 209 257 200 250 226 114 145 87 226 241 268 281 300 319 327 313 254 232 228 222 215 214 217 222 227 230 232 234 236 238 240 241 243 245 248 249 250
252 246 201 294 249 275 287 259 250 281 287 307 202 102 126 179 296 290 306 319 321 319 328 325 235 215 208 207 209 216 220 224 227 230 233 235 237 238 240 242 244 246 248 250
251 219 260 30 316 271 233 224 225 267 181 229 296 118 165 173 173 290 297 331 335 348 319 280 210 189 195 200 208 215 221 223 225 226 227 229 232 236 240 242 245 246 248 249
226 200 223 159 165 102 116 83 168 230 263 279 317 114 175 174 189 307 264 305 300 300 301 315 244 214 203 205 211 216 221 226 231 234 234 235 236 238 241 243 245 248 250 252
139 48 305 356 23 60 151 346 41 53 268 27 57 142 207 246 276 293 301 310 308 299 293 281 272 256 236 235 235 237 238 238 238 237 235 236 240 242 248 252 255 256 256 257
110 58 347 342 4 184 246 15 1 308 298 312 16 205 243 274 298 306 306 302 297 294 290 284 276 266 259 248 236 243 246 249 250 247 238 242 247 251 251 252 254 257 260 263
92 216 104 78 109 107 74 42 62 1 347 279 309 287 289 289 297 296 296 298 296 287 280 270 268 266 262 262 260 253 247 246 248 248 247 250 257 256 253 250 253 254 255 257
73 172 235 152 225 288 273 230 232 269 283 283 291 249 289 292 297 297 292 289 287 280 274 269 268 263 261 263 262 260 258 258 259 259 259 260 261 262 262 260 257 257 257 258
38 33 216 299 227 237 207 217 267 313 301 282 253 314 315 315 312 313 310 291 284 279 275 272 268 265 265 265 264 263 263 264 261 260 258 258 258 257 256 258 258 256 256 257
287 330 278 243 240 295 277 229 141 347 312 242 272 327 308 307 315 333 306 296 296 285 273 269 267 267 267 266 267 265 262 260 260 260 260 260 260 258 255 256 260 256 254 256
262 280 238 275 283 277 150 192 326 339 274 256 312 317 313 316 316 311 306 302 294 288 283 277 271 267 264 264 264 264 263 262 261 260 257 257 257 258 257 256 256 259 261 260
252 257 240 254 263 277 264 276 301 323 301 306 309 311 310 313 313 312 310 307 302 295 288 283 277 271 265 262 261 262 263 261 261 260 258 258 258 257 257 255 257 260 261 262
264 233 236 214 243 267 260 296 285 294 301 305 306 307 309 311 311 308 308 307 302 297 292 287 283 278 271 264 260 259 260 260 260 260 260 259 259 258 256 256 257 259 262 263
254 228 231 221 264 280 293 286 293 305 305 306 306 307 306 307 307 307 309 306 304 302 297 292 288 282 278 273 265 259 257 258 260 259 259 258 258 259 259 256 255 256 258 260
292 272 259 275 273 293 293 288 290 298 305 309 310 308 305 302 305 308 310 308 306 305 303 299 293 289 285 279 274 266 258 256 256 258 259 259 258 258 258 258 256 255 254 256
263 266 271 279 291 290 290 297 300 306 310 313 315 309 304 303 307 309 311 308 307 307 305 304 301 294 290 286 282 275 265 256 252 254 256 257 259 260 261 260 259 254 252 251
16 335 293 284 297 294 296 299 304 310 316 316 315 307 304 304 306 306 308 309 311 311 308 305 304 300 295 290 286 280 269 259 254 253 253 253 258 261 261 261 257 251 247 246